Weather observations for the past three days for
Sitka - Sitka Airport
Imperial (Metric)
Date Time (akdt) Wind (mph) Vis. (mi.) Weather Sky Cond. Temperature (ºF) Relative Humidity Wind Chill (°F) Heat Index (°F) Pressure Precipitation (in)
Air Dwpt 6 hour altimeter (in) sea level (mb) 1 hr 3 hr 6 hr
Max. Min.
15 15:53 SW 14 5.00 Light Rain Fog/Mist FEW005 BKN015 OVC025 57 54 59 57 90% 29.93 1013.7 0.19
15 14:53 SW 17 G 24 5.00 Light Rain Fog/Mist FEW005 BKN015 OVC020 57 54 90% 29.92 1013.3 0.05
15 13:53 SW 16 G 23 5.00 Light Rain Fog/Mist BKN016 BKN022 OVC048 57.9 54 87% 29.91 1012.9 0.04
15 12:53 SW 9 4.00 Light Rain Fog/Mist FEW015 SCT030 OVC036 59 55 87% 29.91 1012.8 0.04 0.1
15 11:53 S 3 5.00 Light Rain Fog/Mist SCT015 BKN035 OVC043 59 55.9 90% 29.91 1012.9 0.04
15 10:53 Calm 3.00 Light Rain Fog/Mist FEW026 OVC031 57.9 55.9 93% 29.91 1013.0 0.02
15 08:53 Calm 4.00 Light Rain Fog/Mist SCT005 BKN018 OVC033 57.9 55 90% 29.91 1012.9 0.03
15 07:53 Vrbl 3 3.00 Light Rain Fog/Mist BKN006 OVC011 57.9 55 90% 29.92 1013.1 0.03
15 06:53 SW 5 5.00 Light Rain Fog/Mist SCT007 BKN012 OVC033 57 54 90% 29.92 1013.1 0.02 0.03
15 05:53 Calm 5.00 Light Rain Fog/Mist OVC031 57 54 90% 29.92 1013.2
15 04:53 S 5 6.00 Light Rain Fog/Mist FEW011 BKN032 OVC043 57 54 90% 29.93 1013.4 0.01
15 03:53 Calm 8.00 Overcast FEW014 OVC030 57 55 57.9 57 93% 29.94 1013.9 0.01 0.1
15 02:53 S 7 5.00 Light Rain Fog/Mist FEW014 BKN028 OVC033 57 54 90% 29.95 1014.2 0.03
15 01:53 S 8 5.00 Light Rain Fog/Mist BKN013 OVC030 57 54 90% 29.96 1014.5 0.02
15 00:53 S 8 3.00 Light Rain Fog/Mist OVC029 57 54 90% 29.96 1014.7 0.01 0.04
14 23:53 S 8 6.00 Light Rain Fog/Mist FEW008 OVC030 57 54 90% 29.97 1014.9 0.02
14 22:53 S 9 6.00 Light Rain Fog/Mist FEW012 FEW018 OVC031 57 54 90% 29.98 1015.2 0.01
14 21:53 S 10 4.00 Light Rain Fog/Mist FEW005 BKN015 OVC034 57 54 59 57 90% 29.98 1015.3 0.12
14 20:53 S 8 4.00 Fog/Mist FEW005 BKN015 OVC034 57.9 54 87% 29.98 1015.1 0.03
14 19:53 S 12 2.00 Light Rain Fog/Mist SCT005 BKN009 OVC025 57.9 54 87% 29.99 1015.6 0.04
14 18:53 S 14 2.00 Light Rain Fog/Mist SCT005 BKN009 OVC025 57.9 54 87% 30 1015.7 0.02 0.05
14 17:53 S 12 1.00 Light Rain Fog/Mist SCT005 BKN010 OVC025 57.9 54 87% 30 1015.9 0.02
14 16:53 S 14 5.00 Light Rain Fog/Mist SCT005 BKN010 OVC025 57.9 54 87% 30 1015.9 0.01
14 15:53 S 13 G 24 5.00 Light Rain SCT005 BKN015 OVC023 59 54 60.1 57.9 83% 30 1016.0 0.29
14 14:53 S 14 8.00 Overcast SCT005 BKN020 OVC035 59 54 83% 30.01 1016.2
14 12:53 SW 12 4.00 Light Rain Fog/Mist OVC023 59 55 87% 30.01 1016.1 0.04 0.26
14 10:53 S 12 1.50 Rain Fog/Mist BKN016 59 55 87% 30 1016.0 0.1
14 09:53 S 7 1.25 Light Rain Fog/Mist FEW007 OVC016 59 55.9 59 57.9 90% 30 1015.9 0.12 0.57
14 08:53 S 8 1.00 Rain Fog/Mist OVC018 59 55 87% 29.99 1015.6 0.12
14 07:53 S 6 1.25 Rain Fog/Mist OVC021 59 55 87% 29.99 1015.4 0.09
14 06:53 S 12 3.00 Light Rain FEW014 OVC026 59 54 83% 29.98 1015.3 0.03 0.24
14 05:53 S 15 G 20 1.75 Light Rain Fog/Mist BKN005 BKN010 OVC023 57.9 54 87% 29.98 1015.2 0.07
14 04:53 S 10 2.00 Rain Fog/Mist BKN005 OVC023 59 55 87% 29.98 1015.3 0.14
14 03:53 S 9 2.00 Rain Fog/Mist BKN005 OVC023 59 55 59 57.9 87% 29.99 1015.5 0.14 0.74
14 02:53 SW 9 2.00 Rain Fog/Mist BKN007 OVC025 57.9 55 90% 29.99 1015.4 0.1
14 01:53 S 10 4.00 Light Rain Fog/Mist BKN007 BKN010 OVC023 59 55 87% 29.99 1015.7 0.06
14 00:53 S 10 1.75 Rain Fog/Mist BKN005 OVC010 59 55 87% 30.01 1016.1 0.17 0.44
13 23:53 S 9 3.00 Light Rain Fog/Mist BKN007 OVC010 59 55 87% 30.01 1016.3 0.07
13 22:53 S 10 2.00 Rain Fog/Mist BKN005 OVC009 59 55.9 90% 30.02 1016.6 0.2
13 21:53 S 7 1.00 Rain Fog/Mist BKN005 OVC009 59 55.9 59 57.9 90% 30.03 1016.8 0.19 1.23
13 20:53 S 7 1.00 Rain Fog/Mist SCT005 BKN009 OVC018 59 55.9 90% 30.03 1017.0 0.27
13 19:53 S 8 1.00 Rain Fog/Mist SCT005 BKN009 OVC015 59 55.9 90% 30.04 1017.2 0.25
13 18:53 SE 9 1.00 Rain Fog/Mist SCT005 BKN009 OVC015 59 55 87% 30.05 1017.6 0.18 0.52
13 17:53 SE 10 1.25 Heavy Rain Fog/Mist SCT005 BKN009 OVC020 59 55 87% 30.06 1017.8 0.18
13 16:53 S 9 1.25 Rain Fog/Mist FEW005 BKN009 OVC020 59 55 87% 30.06 1018.0 0.16
13 15:53 S 7 2.00 Rain Fog/Mist FEW005 BKN009 OVC020 59 55 59 55.9 87% 30.08 1018.5 0.11 0.58
13 13:53 S 7 1.50 Rain Fog/Mist FEW005 BKN009 OVC020 57.9 55 90% 30.09 1018.9 0.09
13 12:53 S 5 3.00 Rain Fog/Mist FEW005 SCT010 OVC025 57.9 54 87% 30.09 1019.0 0.08 0.2
13 11:53 S 7 4.00 Light Rain Fog/Mist FEW005 SCT010 OVC026 57 53.1 87% 30.09 1019.0 0.07
13 10:53 S 8 4.00 Light Rain Fog/Mist FEW005 SCT010 OVC021 55.9 52 87% 30.09 1019.1 0.05
13 09:53 S 7 3.00 Light Rain Fog/Mist FEW006 BKN010 OVC021 55.9 52 55.9 54 87% 30.1 1019.2 0.03 0.09
13 08:53 SE 7 6.00 Light Rain Fog/Mist FEW006 SCT010 OVC029 55 51.1 87% 30.11 1019.5 0.01
13 06:53 S 5 6.00 Light Rain Fog/Mist FEW005 SCT009 OVC020 55 51.1 87% 30.13 1020.3 0.01 0.02
13 05:53 S 6 7.00 Light Rain FEW005 SCT010 OVC035 55 51.1 87% 30.13 1020.4 0.01
13 04:53 Calm 10.00 Light Rain FEW005 SCT012 OVC030 55 50 83% 30.14 1020.7
13 03:53 SE 3 10.00 Overcast SCT005 BKN010 OVC028 55 51.1 55 54 87% 30.15 1020.9
13 02:53 S 3 10.00 Overcast SCT006 BKN013 OVC028 55 51.1 87% 30.16 1021.2
13 01:53 S 5 10.00 Overcast SCT005 BKN013 OVC026 55 50 83% 30.17 1021.6
13 00:53 S 9 10.00 Overcast FEW005 BKN013 OVC030 55 50 83% 30.17 1021.7
12 23:53 S 5 10.00 Overcast SCT005 BKN020 OVC038 55 51.1 87% 30.17 1021.7
12 22:53 S 5 10.00 Overcast FEW003 SCT007 OVC020 55 51.1 87% 30.18 1022.0
12 21:53 S 5 10.00 Overcast SCT003 BKN007 OVC014 55 51.1 57 54 87% 30.18 1021.9 0.02
12 20:53 E 3 7.00 Overcast SCT007 BKN010 OVC020 55 51.1 87% 30.18 1022.0
12 19:53 SW 5 5.00 Fog/Mist BKN007 BKN020 OVC029 54 52 93% 30.19 1022.2 0.02
12 18:53 SW 8 1.00 Light Rain Fog/Mist SCT003 BKN005 OVC010 55 53.1 93% 30.19 1022.5
12 17:53 SW 9 0.50 Light Rain Fog/Mist SCT003 BKN005 OVC015 55 52 90% 30.19 1022.4
12 16:53 SW 14 5.00 Fog/Mist SCT005 BKN015 OVC036 55.9 52 87% 30.19 1022.4
Date Time (akdt) Wind (mph) Vis. (mi.) Weather Sky Cond. Air Dwpt Max. Min. Relative Humidity Wind Chill (°F) Heat Index (°F) altimeter (in) sea level (mb) 1 hr 3 hr 6 hr
6 hour
Temperature (ºF) Pressure Precipitation (in)